THA112 VTBS-VTSP

Flight info

Callsign THA112
Flight time 1h 4m
Altitude 32000
Route VANKO1G VANKO Y8 SAVSA SAVSA1C
Aircraft A320/M-SDE3FGHIRWY/LB1

Departure

Time 2026-05-04 11:24
Airport Suvarnabhumi Airport (VTBS)

Arrival

Time 2026-05-04 12:28
Airport Phuket International Airport (VTSP)
Time Latitude Longitude Altitude Speed Heading
2026-05-04 11:16 13.68944 100.75577 13 ft 0 kts 14°
2026-05-04 11:17 13.68930 100.75573 13 ft 3 kts 12°
2026-05-04 11:17 13.68910 100.75569 15 ft 3 kts
2026-05-04 11:19 13.68854 100.75585 13 ft 0 kts 284°
2026-05-04 11:19 13.68854 100.75584 13 ft 0 kts 284°
2026-05-04 11:19 13.68855 100.75581 13 ft 2 kts 284°
2026-05-04 11:20 13.68849 100.75543 13 ft 7 kts 238°
2026-05-04 11:20 13.68798 100.75514 13 ft 9 kts 195°
2026-05-04 11:20 13.68727 100.75496 13 ft 15 kts 193°
2026-05-04 11:20 13.68617 100.75466 13 ft 17 kts 195°
2026-05-04 11:22 13.68080 100.75816 12 ft 18 kts 193°
2026-05-04 11:22 13.67666 100.75709 11 ft 103 kts 194°
2026-05-04 11:23 13.66742 100.75467 14 ft 166 kts 194°
2026-05-04 11:23 13.65581 100.75146 490 ft 163 kts 197°
2026-05-04 11:24 13.58751 100.75637 1662 ft 196 kts 169°
2026-05-04 11:25 13.57358 100.76033 2198 ft 218 kts 163°
2026-05-04 11:25 13.55866 100.76453 2667 ft 223 kts 165°
2026-05-04 11:25 13.54322 100.76888 2925 ft 240 kts 162°
2026-05-04 11:26 13.50915 100.77946 3931 ft 266 kts 163°
2026-05-04 11:27 13.41352 100.71401 8668 ft 298 kts 265°
2026-05-04 11:28 13.41153 100.69268 9311 ft 301 kts 265°
2026-05-04 11:28 13.40949 100.67110 9848 ft 306 kts 264°
2026-05-04 11:28 13.40738 100.64920 9980 ft 311 kts 264°
2026-05-04 11:28 13.40518 100.62654 9997 ft 325 kts 264°
2026-05-04 11:29 13.40291 100.60331 9999 ft 330 kts 264°
2026-05-04 11:29 13.40029 100.58008 10003 ft 332 kts 259°
2026-05-04 11:29 13.39355 100.55680 10016 ft 344 kts 246°
2026-05-04 11:29 13.38176 100.53570 10149 ft 348 kts 232°
2026-05-04 11:31 13.25273 100.41664 14149 ft 365 kts 220°
2026-05-04 11:33 13.11536 100.29367 17552 ft 385 kts 221°
2026-05-04 11:33 13.09509 100.27554 17922 ft 388 kts 221°
2026-05-04 11:33 13.07467 100.25725 18006 ft 388 kts 221°
2026-05-04 11:34 13.05457 100.23929 18009 ft 388 kts 221°
2026-05-04 11:34 13.03413 100.22105 18389 ft 391 kts 221°
2026-05-04 11:34 13.01356 100.20269 18847 ft 393 kts 221°
2026-05-04 11:34 12.99304 100.18408 19276 ft 395 kts 223°
2026-05-04 11:35 12.97302 100.16447 19704 ft 398 kts 225°
2026-05-04 11:35 12.95346 100.14412 20120 ft 401 kts 226°
2026-05-04 11:35 12.93414 100.12340 20531 ft 403 kts 226°
2026-05-04 11:35 12.91473 100.10244 20932 ft 405 kts 226°
2026-05-04 11:36 12.89517 100.08150 21316 ft 408 kts 226°
2026-05-04 11:36 12.87563 100.06081 21689 ft 410 kts 226°
2026-05-04 11:36 12.85558 100.03983 22060 ft 412 kts 226°
2026-05-04 11:36 12.83534 100.01880 22406 ft 415 kts 225°
2026-05-04 11:37 12.81493 99.99770 22748 ft 417 kts 225°
2026-05-04 11:37 12.79441 99.97650 23096 ft 419 kts 225°
2026-05-04 11:37 12.77384 99.95521 23434 ft 421 kts 226°
2026-05-04 11:37 12.75320 99.93380 23760 ft 423 kts 226°
2026-05-04 11:38 12.73273 99.91252 24075 ft 425 kts 226°
2026-05-04 11:38 12.71194 99.89088 24384 ft 427 kts 226°
2026-05-04 11:38 12.69107 99.86916 24698 ft 429 kts 226°
2026-05-04 11:38 12.67008 99.84734 25000 ft 430 kts 226°
2026-05-04 11:39 12.64894 99.82537 25316 ft 432 kts 226°
2026-05-04 11:39 12.62771 99.80355 25620 ft 433 kts 223°
2026-05-04 11:40 12.45505 99.76057 27260 ft 446 kts 180°
2026-05-04 11:41 12.42432 99.76061 27525 ft 447 kts 181°
2026-05-04 11:41 12.39315 99.76062 27784 ft 448 kts 181°
2026-05-04 11:41 12.36183 99.76061 28047 ft 450 kts 181°
2026-05-04 11:41 12.33042 99.76063 28310 ft 451 kts 180°
2026-05-04 11:42 12.29898 99.76067 28569 ft 453 kts 181°
2026-05-04 11:42 12.26771 99.76073 28826 ft 454 kts 181°
2026-05-04 11:42 12.23602 99.76077 29089 ft 456 kts 181°
2026-05-04 11:42 12.20415 99.76080 29345 ft 457 kts 181°
2026-05-04 11:43 12.17221 99.76081 29597 ft 459 kts 181°
2026-05-04 11:43 12.14022 99.76084 29867 ft 460 kts 181°
2026-05-04 11:43 12.10819 99.76089 30288 ft 457 kts 181°
2026-05-04 11:43 12.07640 99.76096 30679 ft 456 kts 181°
2026-05-04 11:44 12.04514 99.76102 31031 ft 455 kts 181°
2026-05-04 11:44 12.01337 99.76103 31370 ft 455 kts 181°
2026-05-04 11:44 11.98162 99.76105 31706 ft 455 kts 181°
2026-05-04 11:44 11.94992 99.76105 31953 ft 455 kts 181°
2026-05-04 11:45 11.91868 99.76105 32009 ft 452 kts 181°
2026-05-04 11:45 11.85592 99.76113 32011 ft 449 kts 181°
2026-05-04 11:46 11.79334 99.76119 32019 ft 449 kts 181°
2026-05-04 11:46 11.73104 99.76123 32019 ft 449 kts 181°
2026-05-04 11:47 11.67899 99.76124 32020 ft 449 kts 181°
2026-05-04 11:47 11.60633 99.76137 32022 ft 449 kts 181°
2026-05-04 11:48 11.54371 99.76139 32019 ft 449 kts 181°
2026-05-04 11:48 11.49174 99.76140 32019 ft 449 kts 180°
2026-05-04 11:49 11.41898 99.76152 32024 ft 449 kts 180°
2026-05-04 11:49 11.35647 99.76164 32025 ft 449 kts 180°
2026-05-04 11:50 11.30451 99.76168 32022 ft 448 kts 180°
2026-05-04 11:50 11.24193 99.76177 32029 ft 453 kts 180°
2026-05-04 11:51 11.17765 99.76184 32029 ft 469 kts 180°
2026-05-04 11:51 11.11297 99.75290 32029 ft 479 kts 198°
2026-05-04 11:52 11.04906 99.73267 32028 ft 482 kts 198°
2026-05-04 11:52 10.98492 99.71254 32028 ft 482 kts 197°
2026-05-04 11:53 10.92079 99.69253 32028 ft 482 kts 197°
2026-05-04 11:53 10.85663 99.67253 32026 ft 482 kts 197°
2026-05-04 11:55 10.60045 99.59229 32028 ft 483 kts 197°
2026-05-04 11:56 10.53611 99.57227 32031 ft 483 kts 197°
2026-05-04 11:56 10.47181 99.55224 32033 ft 483 kts 197°
2026-05-04 11:57 10.40741 99.53211 32036 ft 484 kts 197°
2026-05-04 11:57 10.34297 99.51191 32039 ft 484 kts 197°
2026-05-04 11:58 10.27897 99.49194 32038 ft 484 kts 197°
2026-05-04 11:58 10.21438 99.47189 32041 ft 484 kts 197°
2026-05-04 11:59 10.14997 99.45187 32043 ft 484 kts 197°
2026-05-04 11:59 10.08597 99.43189 32043 ft 484 kts 197°
2026-05-04 12:00 10.02151 99.41182 32043 ft 484 kts 197°
2026-05-04 12:00 9.95700 99.39174 32037 ft 484 kts 197°
2026-05-04 12:01 9.89294 99.37178 32029 ft 484 kts 197°
2026-05-04 12:02 9.66745 99.30177 32014 ft 480 kts 197°
2026-05-04 12:03 9.63591 99.29200 31910 ft 466 kts 197°
2026-05-04 12:03 9.60524 99.28248 31593 ft 457 kts 197°
2026-05-04 12:03 9.57493 99.27305 31066 ft 454 kts 197°
2026-05-04 12:03 9.54485 99.26365 30544 ft 450 kts 197°
2026-05-04 12:04 9.51541 99.25446 30026 ft 447 kts 197°
2026-05-04 12:04 9.48575 99.24524 29494 ft 444 kts 197°
2026-05-04 12:04 9.45625 99.23608 29004 ft 440 kts 197°
2026-05-04 12:04 9.42709 99.22704 28450 ft 438 kts 197°
2026-05-04 12:05 9.39803 99.21805 28001 ft 433 kts 196°
2026-05-04 12:05 9.36933 99.20917 27557 ft 428 kts 196°
2026-05-04 12:05 9.34097 99.20038 27121 ft 424 kts 197°
2026-05-04 12:05 9.31327 99.19176 26686 ft 420 kts 196°
2026-05-04 12:06 9.28545 99.18310 26260 ft 417 kts 196°
2026-05-04 12:06 9.25789 99.17454 25832 ft 413 kts 196°
2026-05-04 12:06 9.23044 99.16605 25383 ft 411 kts 196°
2026-05-04 12:06 9.20309 99.15761 24939 ft 408 kts 196°
2026-05-04 12:07 9.17598 99.14922 24485 ft 406 kts 196°
2026-05-04 12:07 9.14906 99.14075 24025 ft 404 kts 199°
2026-05-04 12:07 9.12370 99.12863 23567 ft 403 kts 211°
2026-05-04 12:07 9.10160 99.11197 23111 ft 401 kts 218°
2026-05-04 12:08 9.08002 99.09419 22646 ft 398 kts 218°
2026-05-04 12:08 9.05855 99.07657 22172 ft 396 kts 218°
2026-05-04 12:08 9.03713 99.05904 21702 ft 394 kts 218°
2026-05-04 12:08 9.01577 99.04158 21239 ft 392 kts 218°
2026-05-04 12:09 8.99461 99.02427 20773 ft 389 kts 218°
2026-05-04 12:09 8.97390 99.00732 20314 ft 387 kts 218°
2026-05-04 12:09 8.95302 98.99024 19863 ft 384 kts 218°
2026-05-04 12:09 8.93232 98.97329 19422 ft 381 kts 218°
2026-05-04 12:10 8.91179 98.95649 18955 ft 379 kts 218°
2026-05-04 12:10 8.89140 98.93980 18506 ft 376 kts 218°
2026-05-04 12:10 8.87111 98.92318 18051 ft 373 kts 218°
2026-05-04 12:10 8.85100 98.90670 17601 ft 371 kts 218°
2026-05-04 12:11 8.83104 98.89037 17154 ft 368 kts 218°
2026-05-04 12:11 8.81120 98.87411 16710 ft 365 kts 218°
2026-05-04 12:11 8.79149 98.85801 16271 ft 363 kts 218°
2026-05-04 12:11 8.77191 98.84204 15836 ft 360 kts 218°
2026-05-04 12:12 8.75244 98.82618 15397 ft 358 kts 218°
2026-05-04 12:12 8.73306 98.81044 14969 ft 356 kts 217°
2026-05-04 12:12 8.71399 98.79498 14546 ft 354 kts 217°
2026-05-04 12:12 8.69483 98.77943 14116 ft 352 kts 217°
2026-05-04 12:13 8.67582 98.76397 13695 ft 350 kts 217°
2026-05-04 12:14 8.54541 98.65786 10770 ft 339 kts 217°
2026-05-04 12:15 8.52712 98.64298 10484 ft 333 kts 217°
2026-05-04 12:15 8.50971 98.62811 10355 ft 323 kts 224°
2026-05-04 12:15 8.49617 98.61029 10133 ft 319 kts 238°
2026-05-04 12:15 8.48510 98.59098 9812 ft 317 kts 239°
2026-05-04 12:16 8.47408 98.57176 9496 ft 315 kts 239°
2026-05-04 12:16 8.46326 98.55296 9228 ft 311 kts 238°
2026-05-04 12:16 8.45245 98.53419 9059 ft 308 kts 239°
2026-05-04 12:16 8.44161 98.51540 8885 ft 308 kts 239°
2026-05-04 12:17 8.43087 98.49678 8723 ft 307 kts 238°
2026-05-04 12:17 8.42013 98.47812 8552 ft 305 kts 239°
2026-05-04 12:17 8.40950 98.45963 8400 ft 305 kts 239°
2026-05-04 12:17 8.39900 98.44139 8230 ft 304 kts 238°
2026-05-04 12:18 8.38838 98.42297 8068 ft 303 kts 238°
2026-05-04 12:18 8.37779 98.40458 7913 ft 302 kts 239°
2026-05-04 12:18 8.36721 98.38623 7747 ft 301 kts 238°
2026-05-04 12:18 8.35661 98.36789 7583 ft 300 kts 238°
2026-05-04 12:19 8.34607 98.34965 7415 ft 300 kts 238°
2026-05-04 12:19 8.33562 98.33151 7262 ft 298 kts 238°
2026-05-04 12:19 8.32520 98.31344 7108 ft 297 kts 239°
2026-05-04 12:19 8.31499 98.29567 6950 ft 296 kts 239°
2026-05-04 12:20 8.30462 98.27768 6784 ft 296 kts 238°
2026-05-04 12:20 8.29425 98.25972 6633 ft 295 kts 239°
2026-05-04 12:20 8.28392 98.24180 6456 ft 294 kts 238°
2026-05-04 12:20 8.27352 98.22378 5890 ft 297 kts 238°
2026-05-04 12:21 8.26319 98.20590 5348 ft 293 kts 238°
2026-05-04 12:21 8.25302 98.18825 4799 ft 289 kts 239°
2026-05-04 12:21 8.24303 98.17098 4375 ft 279 kts 239°
2026-05-04 12:21 8.23329 98.15408 4225 ft 278 kts 239°
2026-05-04 12:22 8.22366 98.13741 4031 ft 279 kts 239°
2026-05-04 12:22 8.21384 98.12057 3827 ft 276 kts 236°
2026-05-04 12:22 8.20108 98.10642 3625 ft 272 kts 216°
2026-05-04 12:22 8.18440 98.09776 3432 ft 269 kts 195°
2026-05-04 12:23 8.16628 98.09550 3317 ft 259 kts 176°
2026-05-04 12:23 8.14861 98.09714 3192 ft 251 kts 174°
2026-05-04 12:23 8.13160 98.09883 3089 ft 240 kts 174°
2026-05-04 12:23 8.11532 98.10055 2857 ft 229 kts 168°
2026-05-04 12:24 8.10161 98.10730 2797 ft 220 kts 132°
2026-05-04 12:24 8.09521 98.12088 2686 ft 220 kts 95°
2026-05-04 12:24 8.09601 98.13605 2504 ft 213 kts 85°
2026-05-04 12:24 8.09743 98.15068 2423 ft 208 kts 84°
2026-05-04 12:25 8.09887 98.16505 2360 ft 199 kts 84°
2026-05-04 12:25 8.10051 98.17820 2360 ft 180 kts 85°
2026-05-04 12:25 8.10201 98.19036 2220 ft 171 kts 85°
2026-05-04 12:25 8.10280 98.20211 1972 ft 167 kts 87°
2026-05-04 12:26 8.10384 98.21357 1780 ft 157 kts 86°
2026-05-04 12:26 8.10502 98.22454 1699 ft 156 kts 85°
2026-05-04 12:26 8.10609 98.23539 1426 ft 156 kts 84°
2026-05-04 12:26 8.10717 98.24623 1065 ft 152 kts 85°
2026-05-04 12:27 8.10795 98.25689 863 ft 151 kts 88°
2026-05-04 12:27 8.10868 98.26725 731 ft 148 kts 84°
2026-05-04 12:27 8.10950 98.27756 598 ft 145 kts 84°
2026-05-04 12:27 8.11057 98.28774 394 ft 144 kts 84°
2026-05-04 12:28 8.11148 98.29778 233 ft 145 kts 83°
2026-05-04 12:28 8.11239 98.30783 57 ft 142 kts 84°
2026-05-04 12:28 8.11326 98.31683 47 ft 111 kts 86°
2026-05-04 12:28 8.11376 98.32262 68 ft 38 kts 86°
2026-05-04 12:29 8.11318 98.32424 71 ft 22 kts 129°
2026-05-04 12:29 8.11258 98.32400 76 ft 8 kts 270°
2026-05-04 12:29 8.11246 98.32316 68 ft 15 kts 261°
2026-05-04 12:29 8.11233 98.32189 63 ft 21 kts 265°